[[{"header":{"parameterUnit":"m.s-1","parameterCategory":1,"la1":30.2991,"la2":30.254,"lo1":-89.0895,"lo2":-89.0444,"dy":0.0017,"dx":0.0017,"nx":28,"ny":28,"refTime":"2025-03-25T09:00:00:Z","depth":0,"parameterNumber":2,"parameterNumberName":"U-component_of_WINDS"},"data":[0,0,0,0,0,0,0,0,0,0,0,0,0,0,0,0,0,0,0,0,0,0,0,0,0,0,0,0,0,0,0,0,0,0,0,0,0,0,0,0,0,0,0,0,0,0,0,0,0,0,0,0,0,0,0,0,0,0,-1.0866,-1.0866,0,-1.0881,-1.0882,-1.0882,-1.0816,-1.0814,-1.0812,-1.0811,-1.0829,-1.0831,-1.0833,0,0,0,0,0,0,0,0,0,0,0,0,0,-1.0781,-1.0783,-1.0866,-1.0866,-1.0866,-1.0881,-1.0882,-1.0882,-1.0817,-1.0814,-1.0812,-1.081,-1.0828,-1.0831,-1.0833,0,0,0,0,0,0,0,0,0,0,0,0,0,-1.081,-1.0784,-1.0866,-1.0835,-1.0833,-1.0881,-1.0882,-1.0882,-1.0817,-1.0814,-1.0811,-1.0809,-1.0827,-1.083,-1.0834,-1.0913,0,0,-1.0844,-1.0846,0,0,0,0,0,0,0,0,-1.0808,-1.0813,-1.084,-1.0838,-1.0835,-1.0844,-1.0858,-1.0892,-1.0818,-1.0823,-1.0811,-1.0807,-1.0836,-1.0839,-1.0848,-1.0914,-1.0914,-1.0844,-1.0847,-1.0848,-1.0849,0,0,0,0,0,0,0,-1.0806,-1.0812,-1.0872,-1.084,-1.0837,-1.0822,-1.0822,-1.0864,-1.0846,-1.0822,-1.0818,-1.082,-1.0834,-1.0845,-1.0848,-1.0915,-1.0844,-1.0847,-1.085,-1.0851,-1.1047,-1.105,0,0,0,0,0,0,-1.0808,-1.0811,-1.0871,-1.0872,-1.0814,-1.0826,-1.0826,-1.0844,-1.0845,-1.0842,-1.0823,-1.0817,-1.0841,-1.0844,-1.0848,-1.0942,-1.0848,-1.0851,-1.0853,-1.1044,-1.1048,-1.1051,0,0,0,0,0,0,-1.0806,-1.0814,-1.0871,-1.084,-1.0846,-1.083,-1.085,-1.0846,-1.0856,-1.0845,-1.0842,-1.0837,-1.0838,-1.0844,-1.0897,-1.0942,-1.0853,-1.0856,-1.104,-1.1045,-1.1049,-1.1129,0,0,0,0,0,0,-1.0804,-1.0814,-1.0843,-1.0841,-1.0848,-1.0919,-1.0853,-1.0848,-1.0862,-1.0855,-1.0858,-1.0855,-1.0837,-1.0893,-1.0901,-1.0945,-1.0859,-1.1036,-1.1042,-1.1048,-1.1123,-1.1136,-1.1148,0,0,0,0,0,-1.0802,-1.0865,-1.0845,-1.0853,-1.0884,-1.0922,-1.0926,-1.0902,-1.0866,-1.0896,-1.0889,-1.0855,-1.0935,-1.0899,-1.0907,-1.0953,-1.1033,-1.104,-1.1047,-1.1117,-1.1133,-1.1147,0,0,0,0,0,0,-1.0873,-1.0864,-1.0842,-1.0907,-1.0915,-1.0911,-1.0947,-1.092,-1.094,-1.0932,-1.0902,-1.0904,-1.0963,-1.0963,-1.0923,-1.103,-1.0978,-1.0987,-1.1028,-1.1044,-1.1056,-1.1055,-1.0861,0,0,0,0,0,-1.0896,-1.0927,-1.0918,-1.0976,-1.0981,-1.0964,-1.0979,-1.096,-1.0968,-1.0972,-1.0969,-1.0979,-1.1006,-1.1024,-1.1049,-1.1122,-1.1122,-1.1158,-1.117,-1.1181,-1.1189,-1.1229,-1.1245,-1.1074,-1.1074,-1.1074,0,0,-1.0945,-1.0944,-1.0965,-1.099,-1.0995,-1.1028,-1.0967,-1.1005,-1.1029,-1.0978,-1.1028,-1.1027,-1.1036,-1.11,-1.1128,-1.1102,-1.1236,-1.119,-1.1198,-1.1201,-1.1238,-1.1255,-1.1269,-1.1079,-1.1078,-1.1078,0,0,-1.1051,-1.1052,-1.1102,-1.1107,-1.1115,-1.1103,-1.1115,-1.1114,-1.1111,-1.1161,-1.1124,-1.1153,-1.12,-1.1208,-1.1219,-1.1328,-1.1299,-1.1337,-1.1403,-1.1442,-1.1456,-1.1468,-1.1508,-1.1523,-1.1345,-1.1345,-1.1346,0,-1.1111,-1.1158,-1.1131,-1.1171,-1.1184,-1.1138,-1.1188,-1.1195,-1.121,-1.1221,-1.1191,-1.125,-1.1252,-1.1319,-1.1345,-1.1355,-1.1369,-1.1337,-1.1456,-1.1468,-1.1478,-1.1517,-1.1532,-1.135,-1.135,-1.1349,-1.1349,0,-1.1232,-1.1266,-1.1305,-1.1321,-1.1337,-1.1383,-1.1363,-1.1383,-1.1363,-1.1354,-1.1407,-1.1408,-1.1433,-1.1447,-1.1427,-1.1511,-1.1494,-1.1461,-1.1408,-1.15,-1.1535,-1.155,-1.1357,-1.1355,-1.1354,-1.1353,0,0,-1.1384,-1.1384,-1.1399,-1.1406,-1.1411,-1.1437,-1.148,-1.1504,-1.1523,-1.1535,-1.1571,-1.1613,-1.1582,-1.1594,-1.1575,-1.1609,-1.1698,-1.1571,-1.1571,-1.1596,-1.1791,-1.1818,-1.1835,-1.1678,-1.168,-1.1682,-1.1791,0,-1.1489,-1.1562,-1.1539,-1.1614,-1.1646,-1.1603,-1.164,-1.1648,-1.1642,-1.1668,-1.166,-1.1691,-1.1647,-1.1654,-1.1686,-1.168,-1.1737,-1.1672,-1.1713,-1.1715,-1.1713,-1.1853,-1.1881,-1.1984,-1.1805,-1.1807,-1.1809,0,-1.1621,-1.1638,-1.1717,-1.1717,-1.1729,-1.1764,-1.1784,-1.1809,-1.1818,-1.181,-1.1824,-1.1798,-1.1842,-1.1788,-1.1849,-1.1805,-1.182,-1.182,-1.1823,-1.1827,-1.1768,-1.1863,-1.2016,-1.2032,-1.183,-1.1828,-1.1827,0,-1.1726,-1.1769,-1.1821,-1.1828,-1.183,-1.1855,-1.1857,-1.1862,-1.1878,-1.1896,-1.1907,-1.1929,-1.1942,-1.1961,-1.1942,-1.1905,-1.2006,-1.1951,-1.2003,-1.2004,-1.2027,-1.2026,-1.2187,-1.2035,-1.2035,-1.2034,-1.2034,0,-1.1846,-1.1896,-1.1869,-1.1901,-1.1956,-1.1929,-1.1984,-1.1981,-1.1986,-1.2018,-1.1982,-1.2013,-1.1986,-1.2015,-1.2,-1.2054,-1.2059,-1.2056,-1.2052,-1.206,-1.2061,-1.207,-1.2063,-1.2038,-1.2038,-1.2037,-1.2036,0,-1.1973,-1.1957,-1.2011,-1.2008,-1.2009,-1.205,-1.2047,-1.2078,-1.2068,-1.2109,-1.2117,-1.2103,-1.2135,-1.2118,-1.2151,-1.2141,-1.2211,-1.2196,-1.2208,-1.2205,-1.2258,-1.2254,-1.2432,-1.2454,-1.2287,-1.2288,-1.229,0,-1.2052,-1.209,-1.209,-1.2109,-1.2113,-1.2144,-1.216,-1.2134,-1.2153,-1.2165,-1.2195,-1.2223,-1.2245,-1.2299,-1.2292,-1.2317,-1.2304,-1.2365,-1.2308,-1.2315,-1.2307,-1.2306,-1.231,-1.2377,-1.2379,-1.238,-1.2381,0,-1.2194,-1.2184,-1.2208,-1.223,-1.225,-1.2266,-1.2279,-1.2297,-1.2272,-1.2295,-1.2327,-1.2344,-1.2377,-1.2407,-1.2429,-1.2432,-1.2404,-1.2399,-1.2413,-1.2422,-1.2428,-1.2428,-1.2241,-1.2396,-1.2394,-1.2393,-1.2392,-1.2392,-1.23,-1.2332,-1.2338,-1.2367,-1.2374,-1.2387,-1.2416,-1.241,-1.2436,-1.2461,-1.2444,-1.2483,-1.2491,-1.2517,-1.2524,-1.2554,-1.253,-1.255,-1.2555,-1.2561,-1.2569,-1.2422,-1.2558,-1.2558,-1.2557,-1.2557,-1.2557,0,-1.2442,-1.2443,-1.247,-1.2489,-1.2512,-1.2482,-1.2495,-1.2517,-1.255,-1.256,-1.2582,-1.262,-1.2648,-1.2644,-1.267,-1.2695,-1.2683,-1.2703,-1.2702,-1.2704,-1.2588,-1.2574,-1.2713,-1.2713,-1.2713,-1.2713,-1.2713,-1.2713,-1.2518,-1.2571,-1.2562,-1.2618,-1.2619,-1.2656,-1.2666,-1.2678,-1.2686,-1.2729,-1.2753,-1.2749,-1.2754,-1.278,-1.2805,-1.2803,-1.2816,-1.2841,-1.2835,-1.2727,-1.2711,-1.2697,-1.2684,-1.2843,-1.2844,-1.2948,-1.2949,-1.295]},{"header":{"parameterUnit":"m.s-1","parameterCategory":1,"la1":30.2991,"la2":30.254,"lo1":-89.0895,"lo2":-89.0444,"dy":0.0017,"dx":0.0017,"nx":28,"ny":28,"refTime":"2025-03-25T09:00:00:Z","depth":0,"parameterNumber":3,"parameterNumberName":"V-component_of_WINDS"},"data":[0,0,0,0,0,0,0,0,0,0,0,0,0,0,0,0,0,0,0,0,0,0,0,0,0,0,0,0,0,0,0,0,0,0,0,0,0,0,0,0,0,0,0,0,0,0,0,0,0,0,0,0,0,0,0,0,0,0,-0.4624,-0.4624,0,-0.4648,-0.4648,-0.4648,-0.464,-0.4639,-0.4639,-0.4638,-0.4662,-0.4663,-0.4664,0,0,0,0,0,0,0,0,0,0,0,0,0,-0.457,-0.4571,-0.4624,-0.4624,-0.4625,-0.4648,-0.4648,-0.4648,-0.464,-0.4639,-0.4638,-0.4638,-0.4661,-0.4663,-0.4664,0,0,0,0,0,0,0,0,0,0,0,0,0,-0.4593,-0.4571,-0.4624,-0.4623,-0.4623,-0.4648,-0.4648,-0.4648,-0.464,-0.4639,-0.4638,-0.4637,-0.4661,-0.4662,-0.4664,-0.4691,0,0,-0.4669,-0.467,0,0,0,0,0,0,0,0,-0.4592,-0.4595,-0.4623,-0.4623,-0.4623,-0.464,-0.4638,-0.4663,-0.464,-0.4633,-0.4638,-0.4637,-0.4655,-0.4657,-0.4663,-0.4692,-0.4693,-0.4669,-0.4671,-0.4671,-0.4672,0,0,0,0,0,0,0,-0.459,-0.4594,-0.4633,-0.4623,-0.4624,-0.4621,-0.4624,-0.4642,-0.4648,-0.4634,-0.4633,-0.4636,-0.4655,-0.4662,-0.4664,-0.4693,-0.4669,-0.4671,-0.4672,-0.4673,-0.4744,-0.4745,0,0,0,0,0,0,-0.4589,-0.4593,-0.4633,-0.4634,-0.4605,-0.4623,-0.4625,-0.4635,-0.4648,-0.4649,-0.4637,-0.4636,-0.4659,-0.4662,-0.4665,-0.4696,-0.4671,-0.4673,-0.4674,-0.4743,-0.4744,-0.4745,0,0,0,0,0,0,-0.4588,-0.4593,-0.4632,-0.4613,-0.4618,-0.4624,-0.4636,-0.4636,-0.4643,-0.4651,-0.4651,-0.4643,-0.4659,-0.4662,-0.4684,-0.4697,-0.4674,-0.4675,-0.4742,-0.4744,-0.4745,-0.476,0,0,0,0,0,0,-0.4586,-0.4592,-0.4603,-0.4614,-0.4619,-0.4651,-0.4637,-0.4637,-0.4646,-0.4645,-0.4656,-0.4657,-0.4658,-0.4682,-0.4686,-0.4699,-0.4676,-0.4741,-0.4743,-0.4744,-0.4759,-0.4762,-0.4765,0,0,0,0,0,-0.4584,-0.4606,-0.4603,-0.4608,-0.4633,-0.4652,-0.4655,-0.4656,-0.4647,-0.4657,-0.4662,-0.4657,-0.4695,-0.4684,-0.4689,-0.4703,-0.474,-0.4742,-0.4744,-0.4757,-0.4761,-0.4765,0,0,0,0,0,0,-0.4596,-0.4607,-0.4604,-0.463,-0.464,-0.4651,-0.4664,-0.466,-0.4673,-0.4671,-0.4671,-0.4674,-0.4697,-0.4702,-0.4689,-0.4729,-0.4716,-0.4719,-0.4725,-0.4729,-0.4732,-0.473,-0.4678,0,0,0,0,0,-0.4601,-0.4617,-0.4626,-0.4648,-0.4653,-0.4657,-0.4666,-0.4666,-0.4676,-0.468,-0.4686,-0.4696,-0.471,-0.472,-0.4733,-0.4759,-0.4762,-0.4771,-0.4774,-0.4777,-0.4779,-0.4793,-0.4798,-0.4752,-0.4752,-0.4752,0,0,-0.4613,-0.4621,-0.4631,-0.465,-0.4658,-0.4673,-0.4661,-0.4678,-0.4689,-0.4682,-0.4704,-0.4709,-0.472,-0.4744,-0.4755,-0.4749,-0.4792,-0.4779,-0.4781,-0.4782,-0.4796,-0.48,-0.4804,-0.4753,-0.4753,-0.4753,0,0,-0.4642,-0.465,-0.4669,-0.4677,-0.4689,-0.4692,-0.4696,-0.4707,-0.471,-0.4732,-0.4727,-0.474,-0.4764,-0.4772,-0.478,-0.4811,-0.4807,-0.4816,-0.4832,-0.4846,-0.4849,-0.4852,-0.4864,-0.4868,-0.4818,-0.4818,-0.4818,0,-0.4655,-0.4679,-0.4679,-0.4697,-0.4705,-0.47,-0.4719,-0.4727,-0.4742,-0.4748,-0.4741,-0.4771,-0.4778,-0.4804,-0.4812,-0.4818,-0.4823,-0.4815,-0.4849,-0.4852,-0.4855,-0.4866,-0.487,-0.4819,-0.4819,-0.4819,-0.4819,0,-0.4694,-0.471,-0.4724,-0.474,-0.475,-0.4768,-0.4771,-0.4781,-0.4779,-0.4783,-0.4805,-0.4813,-0.4828,-0.4834,-0.4833,-0.4859,-0.4855,-0.4849,-0.4836,-0.486,-0.4871,-0.4875,-0.4821,-0.482,-0.482,-0.482,0,0,-0.4732,-0.4747,-0.4752,-0.4759,-0.4771,-0.4784,-0.4801,-0.4816,-0.4825,-0.4835,-0.485,-0.4871,-0.4864,-0.4873,-0.4872,-0.4884,-0.4909,-0.4876,-0.4876,-0.4882,-0.4939,-0.4944,-0.4949,-0.4906,-0.4907,-0.4907,-0.4938,0,-0.4762,-0.4794,-0.4794,-0.4823,-0.4838,-0.4833,-0.4848,-0.4857,-0.4861,-0.4874,-0.4877,-0.4892,-0.4883,-0.4887,-0.4899,-0.4904,-0.492,-0.4901,-0.492,-0.492,-0.4917,-0.4954,-0.496,-0.4989,-0.4942,-0.4943,-0.4943,0,-0.4802,-0.4814,-0.4844,-0.4854,-0.4861,-0.4874,-0.4888,-0.49,-0.491,-0.4912,-0.4921,-0.4919,-0.4936,-0.4923,-0.4948,-0.4934,-0.4942,-0.4945,-0.4946,-0.4948,-0.4933,-0.4957,-0.4998,-0.5002,-0.495,-0.4949,-0.4949,0,-0.4826,-0.485,-0.4871,-0.4877,-0.489,-0.4899,-0.4905,-0.4914,-0.4923,-0.4934,-0.494,-0.4954,-0.4961,-0.4971,-0.4973,-0.4963,-0.4997,-0.4984,-0.4999,-0.4999,-0.5006,-0.5006,-0.5049,-0.5011,-0.5011,-0.5011,-0.5011,0,-0.486,-0.4879,-0.4883,-0.4896,-0.4916,-0.4917,-0.4937,-0.4942,-0.495,-0.4963,-0.4959,-0.4972,-0.4973,-0.4986,-0.4987,-0.5007,-0.501,-0.5012,-0.5012,-0.5013,-0.5013,-0.5018,-0.5016,-0.5012,-0.5012,-0.5011,-0.5011,0,-0.4891,-0.4894,-0.4917,-0.4927,-0.493,-0.4945,-0.4953,-0.4965,-0.4968,-0.4985,-0.4989,-0.4994,-0.5009,-0.5011,-0.5029,-0.503,-0.5053,-0.5051,-0.505,-0.505,-0.5065,-0.5064,-0.5113,-0.5119,-0.5077,-0.5077,-0.5078,0,-0.4913,-0.4927,-0.4938,-0.4947,-0.4953,-0.4968,-0.4977,-0.4978,-0.4987,-0.4999,-0.501,-0.5025,-0.5037,-0.5061,-0.5066,-0.5079,-0.5077,-0.5094,-0.5079,-0.5079,-0.5078,-0.5077,-0.5078,-0.5097,-0.5097,-0.5097,-0.5098,0,-0.4951,-0.4951,-0.4965,-0.4978,-0.4989,-0.5,-0.501,-0.5018,-0.502,-0.503,-0.5046,-0.5055,-0.5073,-0.5088,-0.5101,-0.5106,-0.5102,-0.5102,-0.5106,-0.5107,-0.5106,-0.5107,-0.5058,-0.5101,-0.5101,-0.51,-0.51,-0.51,-0.4978,-0.499,-0.5,-0.5015,-0.5022,-0.5032,-0.5044,-0.5048,-0.5062,-0.5076,-0.5076,-0.5093,-0.5102,-0.512,-0.5126,-0.5139,-0.5134,-0.514,-0.5141,-0.5143,-0.5144,-0.5103,-0.5141,-0.5141,-0.5141,-0.5141,-0.5141,0,-0.5015,-0.5022,-0.5035,-0.5049,-0.5061,-0.5056,-0.5067,-0.5077,-0.5092,-0.5101,-0.5113,-0.5131,-0.5145,-0.5151,-0.5164,-0.5174,-0.5172,-0.5177,-0.5177,-0.5178,-0.5148,-0.5143,-0.5178,-0.5178,-0.5178,-0.5178,-0.5178,-0.5178,-0.5036,-0.5057,-0.5059,-0.5084,-0.5089,-0.5106,-0.5113,-0.5122,-0.5129,-0.5149,-0.5161,-0.5164,-0.5172,-0.5186,-0.5199,-0.52,-0.5206,-0.5211,-0.5212,-0.5184,-0.518,-0.5177,-0.5172,-0.5213,-0.5213,-0.5241,-0.5241,-0.5241]}]]